Overview Statistics Trail Chart Weather Telemetry Raw packets
 

This is the latest recevied weather packets stored in our database for station/object TONGUE. If no packets are shown the sender has not sent any weather packets the latest 10 day(s).

<< 23 24 25 26 27 28 29 >>
Time Temp. Humidity Pressure Rain* Wind** Luminosity Snow
1788124203 18.33° C 75% 0 hPa - - - -
1788123603 17.78° C 72% 0 hPa - - - -
1788123008 18.33° C 70% 0 hPa - - - -
1788122403 18.33° C 71% 0 hPa - - - -
1788121804 18.89° C 66% 0 hPa - - - -
1788121203 17.78° C 67% 0 hPa - - - -
1788120602 18.89° C 70% 0 hPa - - - -
1788120003 17.22° C 74% 0 hPa - - - -
1788119403 18.33° C 69% 0 hPa - - - -
1788118808 17.78° C 73% 0 hPa - - - -
1788118203 17.22° C 75% 0 hPa - - - -
1788117604 17.22° C 75% 0 hPa - - - -
1788117003 17.78° C 73% 0 hPa - - - -
1788115803 18.33° C 70% 0 hPa - - - -
1788115203 17.78° C 71% 0 hPa - - - -
1788114603 18.33° C 67% 0 hPa - - - -
1788113403 17.22° C 72% 0 hPa - - - -
1788112804 16.67° C 76% 0 hPa - - - -
1788112203 17.78° C 74% 0 hPa - - - -
1788111608 18.89° C 72% 0 hPa - - - -
1788111003 18.33° C 73% 0 hPa - - - -
1788110403 17.22° C 79% 0 hPa - - - -
1788108002 17.78° C 76% 0 hPa - - - -
1788106803 16.67° C 84% 0 hPa - - - -
1788106203 16.67° C 87% 0 hPa - - - -

* Rain since midnight (hover to see other rain measurements)
** Current wind speed in m/s (hover to see current wind gust speed)